History for DABS

Tebessa, Algeria

Daily Weekly Monthly
Daily Summary for Friday, September 4, 2015
  Actual: Average: Record:
Temperature
Mean Temperature: 82 °F / 28 °C - :  
Max Temperature: 96 °F / 35 °C 82 °F / 28 °C - ()
Min Temperature: 68 °F / 20 °C 56 °F / 13 °C - ()
Cooling Degree Days 17    
Growing Degree Days 32 (Base 50)    
Moisture
Dew Point 61 °F / 16 °C    
Average Humidity 50    
Maximum Humidity 78    
Minimum Humidity 19    
Precipitation
Precipitation 0.00 in / 0.0 cm 0.04 in / 1.0 cm - ()
Sea Level Pressure
Sea Level Pressure 30.08 in / 1018.71 hPa   
Wind
Wind Speed 4 mph / 6 km/h ()  
Max Wind Speed 20 mph / 32 km/h   
Max Gust Speed -   
Visibility 6.5 miles / 10.6 kilometers   
Events     

Key: T is trace of precipitation, MM is missing value
Source: Averaged Metar Reports

Graphs

Observations

History Graphs Observations

Obs Go Here...

Features

Weather Apps

WunderRadio

Weather Underground Apps
Check out our wide variety of mobile and setup applications.

Weather Underground Applications

Top of Page

Copyright© 2015
Weather Underground, Inc.
Time(CET)TemperatureDew PointHumidity Sea Level Pressure Visibility Wind DirectionWind SpeedGust SpeedPrecipitationEvents Conditions
12:00 AM 71.6 °F / 22.0 °C 62.6 °F / 17.0 °C 73% 30.09 in / 1019 hPa 6.2 miles / 10.0 kilometers ESE 4.6 mph / 7.4 km/h - N/A   Scattered Clouds
12:30 AM 71.6 °F / 22.0 °C 62.6 °F / 17.0 °C 73% 30.09 in / 1019 hPa 6.2 miles / 10.0 kilometers ESE 4.6 mph / 7.4 km/h - N/A   Scattered Clouds
1:00 AM 72 °F / 22 °C 61 °F / 16 °C 61%  in /  hPa 6 miles / 10 kilometers SSE 2.3 mph / 3.7 km/h - -   Scattered Clouds
1:00 AM 71.6 °F / 22.0 °C 60.8 °F / 16.0 °C 69% 30.09 in / 1019 hPa 6.2 miles / 10.0 kilometers SSE 2.3 mph / 3.7 km/h - N/A   Partly Cloudy
1:30 AM 71.6 °F / 22.0 °C 60.8 °F / 16.0 °C 69% 30.09 in / 1019 hPa 6.2 miles / 10.0 kilometers Calm Calm - N/A   Partly Cloudy
2:00 AM 69.8 °F / 21.0 °C 59.0 °F / 15.0 °C 68% 30.09 in / 1019 hPa 6.2 miles / 10.0 kilometers Calm Calm - N/A   Partly Cloudy
2:30 AM 69.8 °F / 21.0 °C 59.0 °F / 15.0 °C 68% 30.09 in / 1019 hPa 6.2 miles / 10.0 kilometers Calm Calm - N/A   Partly Cloudy
3:00 AM 69.8 °F / 21.0 °C 59.0 °F / 15.0 °C 68% 30.09 in / 1019 hPa 6.2 miles / 10.0 kilometers Calm Calm - N/A   Partly Cloudy
3:30 AM 69.8 °F / 21.0 °C 59.0 °F / 15.0 °C 68% 30.09 in / 1019 hPa 6.2 miles / 10.0 kilometers Calm Calm - N/A   Partly Cloudy
4:00 AM 71 °F / 21 °C 59 °F / 15 °C 56%  in /  hPa 6 miles / 10 kilometers Calm Calm - -   Scattered Clouds
4:00 AM 69.8 °F / 21.0 °C 59.0 °F / 15.0 °C 68% 30.06 in / 1018 hPa 6.2 miles / 10.0 kilometers Calm Calm - N/A   Partly Cloudy
4:30 AM 69.8 °F / 21.0 °C 59.0 °F / 15.0 °C 68% 30.06 in / 1018 hPa 6.2 miles / 10.0 kilometers Calm Calm - N/A   Partly Cloudy
5:00 AM 68.0 °F / 20.0 °C 60.8 °F / 16.0 °C 78% 30.06 in / 1018 hPa 6.2 miles / 10.0 kilometers NE 6.9 mph / 11.1 km/h - N/A   Partly Cloudy
5:30 AM 71.6 °F / 22.0 °C 53.6 °F / 12.0 °C 53% 30.06 in / 1018 hPa 6.2 miles / 10.0 kilometers NW 19.6 mph / 31.5 km/h - N/A   Scattered Clouds
6:00 AM 73.4 °F / 23.0 °C 62.6 °F / 17.0 °C 69% 30.12 in / 1020 hPa 6.2 miles / 10.0 kilometers Calm Calm - N/A   Scattered Clouds
6:30 AM 73.4 °F / 23.0 °C 62.6 °F / 17.0 °C 69% 30.12 in / 1020 hPa 6.2 miles / 10.0 kilometers West 6.9 mph / 11.1 km/h - N/A   Scattered Clouds
7:00 AM 75 °F / 24 °C 62 °F / 16 °C 54%  in /  hPa 5 miles / 8 kilometers WNW 6.9 mph / 11.1 km/h - -   Mostly Cloudy
7:00 AM 75.2 °F / 24.0 °C 60.8 °F / 16.0 °C 61% 30.12 in / 1020 hPa 5.0 miles / 8.0 kilometers WNW 6.9 mph / 11.1 km/h - N/A   Mostly Cloudy
7:30 AM 75.2 °F / 24.0 °C 60.8 °F / 16.0 °C 61% 30.12 in / 1020 hPa 5.0 miles / 8.0 kilometers WNW 9.2 mph / 14.8 km/h - N/A   Mostly Cloudy
8:00 AM 77.0 °F / 25.0 °C 59.0 °F / 15.0 °C 54% 30.12 in / 1020 hPa 5.0 miles / 8.0 kilometers West 13.8 mph / 22.2 km/h - N/A   Scattered Clouds
8:30 AM 78.8 °F / 26.0 °C 59.0 °F / 15.0 °C 51% 30.12 in / 1020 hPa 5.0 miles / 8.0 kilometers West 13.8 mph / 22.2 km/h - N/A   Scattered Clouds
9:00 AM 77.0 °F / 25.0 °C 59.0 °F / 15.0 °C 54% 30.12 in / 1020 hPa 5.0 miles / 8.0 kilometers NE 11.5 mph / 18.5 km/h - N/A   Scattered Clouds
9:30 AM 78.8 °F / 26.0 °C 59.0 °F / 15.0 °C 51% 30.12 in / 1020 hPa 6.2 miles / 10.0 kilometers Calm Calm - N/A   Scattered Clouds
10:00 AM 84 °F / 29 °C 62 °F / 16 °C 37%  in /  hPa 7 miles / 12 kilometers Calm Calm - -   Partly Cloudy
10:00 AM 84.2 °F / 29.0 °C 60.8 °F / 16.0 °C 45% 30.12 in / 1020 hPa 6.2 miles / 10.0 kilometers Calm Calm - N/A   Scattered Clouds
10:30 AM 86.0 °F / 30.0 °C 60.8 °F / 16.0 °C 43% 30.12 in / 1020 hPa 6.2 miles / 10.0 kilometers Calm Calm - N/A   Scattered Clouds
11:00 AM 89.6 °F / 32.0 °C 66.2 °F / 19.0 °C 46% 30.12 in / 1020 hPa 6.2 miles / 10.0 kilometers Calm Calm - N/A   Scattered Clouds
11:30 AM 89.6 °F / 32.0 °C 66.2 °F / 19.0 °C 46% 30.12 in / 1020 hPa 6.2 miles / 10.0 kilometers Calm Calm - N/A   Partly Cloudy
12:00 PM 93.2 °F / 34.0 °C 62.6 °F / 17.0 °C 36% 30.09 in / 1019 hPa 6.2 miles / 10.0 kilometers West 9.2 mph / 14.8 km/h - N/A   Scattered Clouds
12:30 PM 93.2 °F / 34.0 °C 62.6 °F / 17.0 °C 36% 30.09 in / 1019 hPa 6.2 miles / 10.0 kilometers WSW 9.2 mph / 14.8 km/h - N/A   Scattered Clouds
1:00 PM 94 °F / 34 °C 62 °F / 17 °C 25%  in /  hPa 12 miles / 20 kilometers SSW 13.8 mph / 22.2 km/h - -   Partly Cloudy
1:00 PM 95.0 °F / 35.0 °C 62.6 °F / 17.0 °C 34% 30.06 in / 1018 hPa 6.2 miles / 10.0 kilometers SSW 13.8 mph / 22.2 km/h - N/A   Scattered Clouds
1:30 PM 93.2 °F / 34.0 °C 62.6 °F / 17.0 °C 36% 30.09 in / 1019 hPa 6.2 miles / 10.0 kilometers WSW 4.6 mph / 7.4 km/h - N/A   Scattered Clouds
2:00 PM 93.2 °F / 34.0 °C 60.8 °F / 16.0 °C 34% 30.06 in / 1018 hPa 6.2 miles / 10.0 kilometers WSW 11.5 mph / 18.5 km/h - N/A   Scattered Clouds
2:30 PM 93.2 °F / 34.0 °C 60.8 °F / 16.0 °C 34% 30.06 in / 1018 hPa 6.2 miles / 10.0 kilometers WSW 11.5 mph / 18.5 km/h - N/A   Scattered Clouds
3:00 PM 93.2 °F / 34.0 °C 60.8 °F / 16.0 °C 34% 30.06 in / 1018 hPa 6.2 miles / 10.0 kilometers SW 4.6 mph / 7.4 km/h - N/A   Scattered Clouds
3:30 PM 93.2 °F / 34.0 °C 60.8 °F / 16.0 °C 34% 30.06 in / 1018 hPa 6.2 miles / 10.0 kilometers SW 4.6 mph / 7.4 km/h - N/A   Scattered Clouds
4:00 PM 97 °F / 36 °C 59 °F / 15 °C 19%  in /  hPa 16 miles / 25 kilometers Calm Calm - -   Scattered Clouds
4:00 PM 96.8 °F / 36.0 °C 59.0 °F / 15.0 °C 28% 30.04 in / 1017 hPa 6.2 miles / 10.0 kilometers Calm Calm - N/A   Partly Cloudy
5:00 PM 95.0 °F / 35.0 °C 59.0 °F / 15.0 °C 30% 30.04 in / 1017 hPa 6.2 miles / 10.0 kilometers WSW 11.5 mph / 18.5 km/h - N/A   Scattered Clouds
5:30 PM 93.2 °F / 34.0 °C 59.0 °F / 15.0 °C 32% 30.04 in / 1017 hPa 6.2 miles / 10.0 kilometers WSW 11.5 mph / 18.5 km/h - N/A   Scattered Clouds
6:00 PM 91.4 °F / 33.0 °C 59.0 °F / 15.0 °C 34% 30.04 in / 1017 hPa 6.2 miles / 10.0 kilometers Calm Calm - N/A   Scattered Clouds
7:00 PM 89 °F / 32 °C 60 °F / 16 °C 28%  in /  hPa 12 miles / 20 kilometers Calm Calm - -   Scattered Clouds
7:00 PM 89.6 °F / 32.0 °C 60.8 °F / 16.0 °C 38% 30.01 in / 1016 hPa 6.2 miles / 10.0 kilometers Calm Calm - N/A   Scattered Clouds
7:30 PM 87.8 °F / 31.0 °C 60.8 °F / 16.0 °C 40% 30.01 in / 1016 hPa 6.2 miles / 10.0 kilometers SSW 4.6 mph / 7.4 km/h - N/A   Scattered Clouds